Weather History for Red Oak, IA

Change the Weather History Date:

Tuesday, January 8, 2013

  Actual Average Record
Temperature  
Mean Temperature 38 °F -  
Max Temperature 51 °F 27 °F 66 °F (2003)
Min Temperature 26 °F 8 °F -15 °F (1979)
Degree Days  
Heating Degree Days 26    
Moisture  
Dew Point 29 °F    
Average Humidity 68    
Maximum Humidity 86    
Minimum Humidity 47    
Precipitation  
Precipitation 0.00 in - - ()
Sea Level Pressure  
Sea Level Pressure 29.94 in    
Wind  
Wind Speed 6 mph (SSW)    
Max Wind Speed 21 mph    
Max Gust Speed 28 mph    
Visibility 10 miles    
Events      
Averages and records for this station are not official NWS values.
T = Trace of Precipitation, MM = Missing Value Source: NWS Daily Summary

Daily Weather History Graph

Daily Weather History Graph

Search for Another Location

Airport:

Trip Planner

Search our weather history database for the weather conditions in past years. The results will help you decide how hot, cold, wet, or windy it might be!

Date:

Astronomy

Jan. 08, 2013 Rise Set
Actual Time 7:45 AM CST 5:10 PM CST
Civil Twilight 7:15 AM CST 5:41 PM CST
Nautical Twilight 6:40 AM CST 6:15 PM CST
Astronomical Twilight 6:07 AM CST 6:48 PM CST
Moon 4:19 AM CST (1/8) 2:13 PM CST (1/8)
Length of Visible Light 10h 25m
Length of Day
9h 24m
Waning Crescent, 13% of the Moon is Illuminated
Jan 8
Waning Crescent
Jan 11
New
Jan 18
First Quarter
Jan 26
Full
Feb 3
Last Quarter

Hourly Weather History & Observations

Time (CST) Temp. Windchill Dew Point Humidity Pressure Visibility Wind Dir Wind Speed Gust Speed Precip Events Conditions
12:15 AM 28.4 °F - 23.0 °F 80% 29.96 in 10.0 mi Calm Calm - N/A   Clear
12:35 AM 26.6 °F - 21.2 °F 80% 29.96 in 10.0 mi Calm Calm - N/A   Clear
12:55 AM 28.4 °F - 24.8 °F 86% 29.96 in 10.0 mi Calm Calm - N/A   Clear
1:15 AM 30.2 °F - 24.8 °F 80% 29.96 in 10.0 mi Calm Calm - N/A   Clear
1:35 AM 32.0 °F - 24.8 °F 75% 29.96 in 10.0 mi Calm Calm - N/A   Clear
1:55 AM 30.2 °F - 24.8 °F 80% 29.96 in 10.0 mi Calm Calm - N/A   Clear
2:15 AM 30.2 °F - 24.8 °F 80% 29.96 in 10.0 mi Calm Calm - N/A   Clear
2:35 AM 30.2 °F - 23.0 °F 75% 29.96 in 10.0 mi Calm Calm - N/A   Clear
2:55 AM 30.2 °F - 24.8 °F 80% 29.96 in 10.0 mi Calm Calm - N/A   Clear
3:15 AM 30.2 °F - 24.8 °F 80% 29.96 in 10.0 mi Calm Calm - N/A   Clear
3:35 AM 30.2 °F 26.7 °F 23.0 °F 75% 29.95 in 10.0 mi South 3.5 mph - N/A   Clear
3:55 AM 30.2 °F 25.4 °F 24.8 °F 80% 29.93 in 10.0 mi South 4.6 mph - N/A   Clear
4:15 AM 30.2 °F 25.4 °F 24.8 °F 80% 29.93 in 10.0 mi SSW 4.6 mph - N/A   Clear
4:35 AM 32.0 °F 26.4 °F 24.8 °F 75% 29.92 in 10.0 mi South 5.8 mph - N/A   Clear
4:55 AM 32.0 °F 26.4 °F 24.8 °F 75% 29.91 in 10.0 mi South 5.8 mph - N/A   Clear
5:15 AM 33.8 °F 27.0 °F 26.6 °F 75% 29.91 in 10.0 mi South 8.1 mph - N/A   Clear
5:35 AM 33.8 °F 27.0 °F 26.6 °F 75% 29.91 in 10.0 mi South 8.1 mph - N/A   Clear
6:15 AM 33.8 °F 27.7 °F 26.6 °F 75% 29.91 in 10.0 mi South 6.9 mph - N/A   Clear
6:35 AM 33.8 °F 28.6 °F 26.6 °F 75% 29.91 in 10.0 mi South 5.8 mph - N/A   Clear
6:55 AM 33.8 °F 28.6 °F 26.6 °F 75% 29.91 in 10.0 mi South 5.8 mph - N/A   Clear
7:15 AM 33.8 °F 28.6 °F 26.6 °F 75% 29.92 in 10.0 mi South 5.8 mph - N/A   Clear
7:35 AM 32.0 °F 27.5 °F 24.8 °F 75% 29.92 in 10.0 mi South 4.6 mph - N/A   Clear
7:55 AM 33.8 °F 28.6 °F 26.6 °F 75% 29.92 in 10.0 mi South 5.8 mph - N/A   Clear
8:15 AM 33.8 °F 29.6 °F 26.6 °F 75% 29.93 in 10.0 mi South 4.6 mph - N/A   Clear
8:35 AM 32.0 °F 27.5 °F 26.6 °F 80% 29.92 in 10.0 mi South 4.6 mph - N/A   Clear
8:55 AM 33.8 °F - 26.6 °F 75% 29.93 in 10.0 mi Calm Calm - N/A   Clear
9:15 AM 37.4 °F 32.1 °F 28.4 °F 70% 29.94 in 10.0 mi South 6.9 mph - N/A   Clear
9:35 AM 37.4 °F 30.3 °F 28.4 °F 70% 29.93 in 10.0 mi South 10.4 mph - N/A   Clear
9:55 AM 39.2 °F 31.2 °F 30.2 °F 70% 29.93 in 10.0 mi South 13.8 mph - N/A   Clear
10:15 AM 41.0 °F 33.5 °F 30.2 °F 65% 29.93 in 10.0 mi South 13.8 mph 19.6 mph N/A   Clear
10:35 AM 42.8 °F 35.1 °F 30.2 °F 61% 29.92 in 10.0 mi South 16.1 mph - N/A   Clear
10:55 AM 44.6 °F 38.1 °F 33.8 °F 66% 29.91 in 10.0 mi South 13.8 mph - N/A   Clear
11:15 AM 46.4 °F 39.5 °F 33.8 °F 62% 29.90 in 10.0 mi South 17.3 mph 20.7 mph N/A   Clear
11:35 AM 46.4 °F 39.8 °F 30.2 °F 53% 29.88 in 10.0 mi SSW 16.1 mph 23.0 mph N/A   Clear
11:55 AM 48.2 °F - 32.0 °F 54% 29.87 in 10.0 mi SSW 20.7 mph 27.6 mph N/A   Clear
12:15 PM 48.2 °F - 32.0 °F 54% 29.86 in 10.0 mi SSW 20.7 mph - N/A   Clear
12:35 PM 50.0 °F - 32.0 °F 50% 29.85 in 10.0 mi SSW 19.6 mph 24.2 mph N/A   Clear
12:55 PM 51.8 °F - 32.0 °F 47% 29.83 in 10.0 mi SSW 17.3 mph 24.2 mph N/A   Clear
1:15 PM 51.8 °F - 33.8 °F 50% 29.84 in 10.0 mi SSW 19.6 mph 25.3 mph N/A   Clear
1:55 PM 51.8 °F - 32.0 °F 47% 29.84 in 10.0 mi SW 18.4 mph 26.5 mph N/A   Clear
2:15 PM 51.8 °F - 32.0 °F 47% 29.85 in 10.0 mi SW 19.6 mph 24.2 mph N/A   Clear
2:35 PM 51.8 °F - 32.0 °F 47% 29.86 in 10.0 mi WSW 17.3 mph 24.2 mph N/A   Clear
2:55 PM 51.8 °F - 32.0 °F 47% 29.87 in 10.0 mi SW 15.0 mph 24.2 mph N/A   Clear
3:15 PM 51.8 °F - 33.8 °F 50% 29.89 in 10.0 mi SW 19.6 mph 25.3 mph N/A   Clear
3:35 PM 50.0 °F - 32.0 °F 50% 29.90 in 10.0 mi SW 17.3 mph 25.3 mph N/A   Clear
3:55 PM 48.2 °F - 32.0 °F 54% 29.90 in 10.0 mi SW 16.1 mph - N/A   Clear
4:15 PM 48.2 °F - 32.0 °F 54% 29.90 in 10.0 mi SW 13.8 mph - N/A   Clear
4:35 PM 46.4 °F 40.4 °F 32.0 °F 57% 29.91 in 10.0 mi SW 13.8 mph 19.6 mph N/A   Clear
4:55 PM 46.4 °F 41.1 °F 30.2 °F 53% 29.93 in 10.0 mi WSW 11.5 mph - N/A   Clear
5:15 PM 44.6 °F 39.7 °F 30.2 °F 57% 29.94 in 10.0 mi SW 9.2 mph - N/A   Clear
5:35 PM 42.8 °F 38.6 °F 30.2 °F 61% 29.95 in 10.0 mi SW 6.9 mph - N/A   Clear
5:55 PM 41.0 °F 38.0 °F 30.2 °F 65% 29.95 in 10.0 mi SW 4.6 mph - N/A   Clear
6:15 PM 37.4 °F 32.8 °F 30.2 °F 75% 29.96 in 10.0 mi SW 5.8 mph - N/A   Clear
6:35 PM 37.4 °F 33.8 °F 30.2 °F 75% 29.98 in 10.0 mi SW 4.6 mph - N/A   Clear
6:55 PM 37.4 °F 33.8 °F 30.2 °F 75% 30.00 in 10.0 mi WSW 4.6 mph - N/A   Clear
7:15 PM 39.2 °F 33.6 °F 30.2 °F 70% 30.01 in 10.0 mi WSW 8.1 mph - N/A   Clear
7:35 PM 39.2 °F 33.0 °F 30.2 °F 70% 30.02 in 10.0 mi SW 9.2 mph - N/A   Scattered Clouds
7:55 PM 39.2 °F 34.2 °F 30.2 °F 70% 30.03 in 10.0 mi SW 6.9 mph - N/A   Scattered Clouds
8:15 PM 39.2 °F 33.6 °F 30.2 °F 70% 30.03 in 10.0 mi West 8.1 mph - N/A   Clear
8:35 PM 39.2 °F 34.2 °F 30.2 °F 70% 30.05 in 10.0 mi West 6.9 mph - N/A   Clear
8:55 PM 37.4 °F - 28.4 °F 70% 30.06 in 10.0 mi Calm Calm - N/A   Clear
9:35 PM 37.4 °F - 30.2 °F 75% 30.08 in 10.0 mi Calm Calm - N/A   Clear
9:55 PM 35.6 °F - 28.4 °F 75% 30.10 in 10.0 mi Calm Calm - N/A   Clear
10:15 PM 37.4 °F - 28.4 °F 70% 30.11 in 10.0 mi Calm Calm - N/A   Clear
10:35 PM 35.6 °F - 28.4 °F 75% 30.12 in 10.0 mi Calm Calm - N/A   Clear
11:55 PM 33.8 °F - 28.4 °F 81% 30.13 in 10.0 mi Calm Calm - N/A   Clear